{"data":{"norad_id":64502,"intl_designator":"2025-134C","name":"KUIPER-00041","alt_names":[],"object_type":"PAYLOAD","status":"ACTIVE","operator":null,"country":"US","launch_date":"2025-06-23","launch_site_code":"AFETR","launch_vehicle":null,"mission":null,"orbit_class":"UNKNOWN","rcs_meters":null,"size_class":null,"mass_kg":null,"dimensions":null,"purposes":[],"wikipedia_slug":null,"has_3d_model":false,"image_url":null,"decayed_at":null,"tle_current":{"epoch":"2026-05-25T01:27:14.052384Z","epoch_age_seconds":73780,"freshness":"FRESH","line1":"1 64502U 25134C   26145.06057931  .00000479  00000+0  91839-4 0  9994","line2":"2 64502  51.9000 267.8657 0000342 146.7406 213.3578 14.79938238 51203","mean_motion":14.79938238,"eccentricity":3.42e-5,"inclination_deg":51.9,"raan_deg":267.8657,"arg_perigee_deg":146.7406,"mean_anomaly_deg":213.3578,"bstar":9.1839e-5,"rev_number":5120,"period_min":97.301357788148,"perigee_km":629.27943231732,"apogee_km":629.75875599416,"semimajor_km":7007.6560941557,"source":"CELESTRAK","updated_at":"2026-05-25T13:38:04.552232Z"}}}